彩虹 9星 (RADUGA 9)

导读 | 星芒AI

RADUGA 9 是一颗俄罗斯的军用通信卫星,属于“彩虹”(Raduga)系列,主要用于支持俄罗斯武装部队的战术和战略通信需求。该卫星具备抗干扰能力,能够在复杂电磁环境下提供稳定、安全的通信链路。它由俄罗斯国家航天集团(Roscosmos)和国防工业联合研制,通常通过联盟号(Soyuz)运载火箭发射。RADUGA 9 的部署增强了俄罗斯在军事行动中的信息传输能力,提升了指挥控制系统的效率和可靠性。

基本信息
目录编号:
12618
目录名称:
RADUGA 9
国际标识:
1981-069A
轨道中心:
EARTH
卫星名称:
彩虹 9星
卫星全名:
彩虹 9星 (RADUGA 9)
卫星状态:
在轨 (已飞行16147 天)
发射日期:
1981-07-30 UTC
国别 :
俄罗斯(独联体) (CIS)
星等 :
--
轨道信息
数据来源 国际轨道数据 AOE轨道数据
星历时间 2025-10-14T04:48:20+0800
17小时前
查看轨道信息
2025-10-12T03:00:00+0800
2天前
查看轨道信息
半长轴 42162.093km 42161.729km
偏心率 0.000215 0.0002139
轨道倾角 7.177° 7.181°
近地点辐角 235.518° 234.234°
升交点赤经 295.652° 295.671°
平近点角 277.358° 249.422°
近地点 35774.893km 35774.575km
远地点 35793.023km 35792.613km
周期 1435.962分钟 1435.943分钟
每日圈数 1.002812 1.002825
详细信息
平衡模式:
三轴稳定
覆盖范围:
全球
运营商:
俄罗斯国家航天集团
运营商所在国:
俄罗斯
制造商(研发单位):
普里克拉德诺伊·梅哈尼基设计局
制造商所在国:
俄罗斯联邦
使用方式:
暂无
卫星简介
彩虹卫星(Raduga, Gran)是苏联用于军事和通信目的的一系列地球静止通信卫星。彩虹卫星旨在支持军事通信、Orbita地面电视网络,并在整个东半球(极地地区除外)提供电话和电报通信。该卫星已退役。
2D轨道图
3D轨道图
轨道高度分析图
轨道倾角分析图
轨道综合分析图
查看轨道综合分析图